Location: Les Jeannots
(43.2262°N, 5.5774°E)
Time: 02:11:29
(UTC+00:00)

Cosmos 2237 Rocket - Pass Details

Date: 05 July 2020
Orbit: 834 x 850 km, 71.0° (Epoch: 04 August)

Event Time Altitude Azimuth Distance (km) Brightness Sun altitude
Exits shadow 20:33:10 10° 108° (ESE) 2,448 4.1 -11.1°
Maximum altitude 20:34:22 11° 95° (E) 2,403 4.1 -11.2°
Drops below altitude 10° 20:35:50 10° 80° (E) 2,478 4.3 -11.4°
Sets 20:40:23 0° 47° (NE) 3,422 5.4 -11.9°
